[[{"header":{"parameterUnit":"m.s-1","parameterCategory":2,"la1":30.2991,"la2":30.254,"lo1":-89.0895,"lo2":-89.0444,"dy":0.0017,"dx":0.0017,"nx":28,"ny":28,"refTime":"2025-03-25T21:00:00:Z","depth":"0","parameterNumber":2,"parameterNumberName":"U-component_of_CURRENTS"},"data":[0,0,0,0,0,0,0,0,0,0,0,0,0,0,0,0,0,0,0,0,0,0,0,0,0,0,0,0,0,0,0,0,0,0,0,0,0,0,0,0,0,0,0,0,0,0,0,0,0,0,0,0,0,0,0,0,0,0,-0.2551,-0.255,0,-0.2468,-0.2467,-0.2466,-0.2428,-0.2428,-0.2429,-0.2429,-0.2298,-0.2294,-0.2291,0,0,0,0,0,0,0,0,0,0,0,0,0,-0.2542,-0.2543,-0.2551,-0.255,-0.2549,-0.2468,-0.2467,-0.2465,-0.2428,-0.2428,-0.2429,-0.2429,-0.2299,-0.2295,-0.229,0,0,0,0,0,0,0,0,0,0,0,0,0,-0.2511,-0.2544,-0.2552,-0.2521,-0.2518,-0.2468,-0.2467,-0.2465,-0.2428,-0.2428,-0.2429,-0.2429,-0.2301,-0.2295,-0.229,-0.2252,0,0,-0.2273,-0.2271,0,0,0,0,0,0,0,0,-0.2513,-0.2511,-0.2527,-0.2523,-0.2519,-0.2459,-0.2415,-0.2392,-0.2428,-0.2462,-0.2429,-0.2429,-0.2348,-0.2338,-0.2322,-0.2246,-0.224,-0.2273,-0.227,-0.2267,-0.2266,0,0,0,0,0,0,0,-0.2515,-0.2514,-0.2518,-0.2526,-0.2521,-0.2465,-0.2462,-0.241,-0.2403,-0.2459,-0.2456,-0.2447,-0.2345,-0.2327,-0.2319,-0.2238,-0.2273,-0.2268,-0.2265,-0.2263,-0.2158,-0.2159,0,0,0,0,0,0,-0.2534,-0.2517,-0.252,-0.2515,-0.2517,-0.2466,-0.2462,-0.2478,-0.2405,-0.2394,-0.2447,-0.2446,-0.2337,-0.2325,-0.2314,-0.2289,-0.2267,-0.2262,-0.2259,-0.2158,-0.2158,-0.2159,0,0,0,0,0,0,-0.2535,-0.2536,-0.2524,-0.2513,-0.2507,-0.2467,-0.2484,-0.2476,-0.246,-0.2397,-0.2385,-0.2439,-0.2336,-0.2321,-0.228,-0.2282,-0.226,-0.2255,-0.2157,-0.2158,-0.2159,-0.2223,0,0,0,0,0,0,-0.2535,-0.2537,-0.2542,-0.2515,-0.2509,-0.2507,-0.2483,-0.2474,-0.2454,-0.2452,-0.2386,-0.2374,-0.2335,-0.2288,-0.2274,-0.2275,-0.225,-0.2157,-0.2158,-0.2159,-0.222,-0.2226,-0.223,0,0,0,0,0,-0.2535,-0.2543,-0.2544,-0.2543,-0.2523,-0.2507,-0.2499,-0.2468,-0.2454,-0.2453,-0.2411,-0.2376,-0.2285,-0.2284,-0.2268,-0.2266,-0.2156,-0.2157,-0.2158,-0.2218,-0.2225,-0.223,0,0,0,0,0,0,-0.2533,-0.2539,-0.254,-0.2548,-0.2536,-0.2501,-0.2488,-0.2471,-0.2435,-0.2428,-0.2373,-0.2359,-0.2326,-0.2288,-0.2289,-0.2242,-0.2217,-0.2215,-0.2268,-0.2274,-0.2279,-0.2283,-0.2246,0,0,0,0,0,-0.254,-0.2544,-0.2546,-0.2543,-0.255,-0.2521,-0.2505,-0.249,-0.2459,-0.2443,-0.2404,-0.2358,-0.2316,-0.229,-0.225,-0.2215,-0.2207,-0.2207,-0.2212,-0.2217,-0.221,-0.2202,-0.2206,-0.2163,-0.2163,-0.2163,0,0,-0.2528,-0.2533,-0.2531,-0.2541,-0.253,-0.2534,-0.2513,-0.2498,-0.2487,-0.2432,-0.2406,-0.2372,-0.2312,-0.2283,-0.2264,-0.225,-0.2234,-0.2218,-0.2223,-0.2213,-0.2203,-0.2208,-0.2211,-0.2163,-0.2163,-0.2163,0,0,-0.25,-0.253,-0.2524,-0.2534,-0.253,-0.2529,-0.2532,-0.2517,-0.2503,-0.2476,-0.2438,-0.2411,-0.2346,-0.2311,-0.2281,-0.2287,-0.2264,-0.2276,-0.2297,-0.229,-0.2294,-0.2297,-0.2333,-0.2339,-0.2276,-0.2276,-0.2276,0,-0.2481,-0.2491,-0.2514,-0.2522,-0.2533,-0.2536,-0.2543,-0.2528,-0.2494,-0.2486,-0.2479,-0.2406,-0.2359,-0.2315,-0.232,-0.2297,-0.2304,-0.2279,-0.2298,-0.23,-0.2302,-0.2338,-0.2343,-0.228,-0.2279,-0.2279,-0.2279,0,-0.2454,-0.2471,-0.2474,-0.25,-0.252,-0.2523,-0.254,-0.2545,-0.254,-0.252,-0.2493,-0.2443,-0.2402,-0.2387,-0.2347,-0.2334,-0.2342,-0.231,-0.2285,-0.231,-0.2347,-0.2352,-0.2284,-0.2283,-0.2282,-0.2281,0,0,-0.2396,-0.2443,-0.2448,-0.247,-0.2517,-0.2533,-0.2547,-0.2558,-0.2571,-0.2539,-0.2543,-0.2471,-0.2457,-0.2422,-0.2382,-0.2367,-0.2398,-0.2345,-0.2343,-0.2387,-0.2419,-0.2282,-0.2274,-0.237,-0.237,-0.237,-0.2456,0,-0.2364,-0.2377,-0.2421,-0.2452,-0.2474,-0.2528,-0.2554,-0.2569,-0.2579,-0.2591,-0.254,-0.252,-0.2465,-0.2455,-0.2433,-0.2401,-0.2405,-0.238,-0.2382,-0.2382,-0.226,-0.2271,-0.2114,-0.2163,-0.246,-0.2461,-0.2461,0,-0.2327,-0.2349,-0.2368,-0.2455,-0.2478,-0.2499,-0.2581,-0.2602,-0.2625,-0.2634,-0.2613,-0.2586,-0.2549,-0.2509,-0.2474,-0.2462,-0.2445,-0.2426,-0.2428,-0.227,-0.2249,-0.2175,-0.2159,-0.2164,-0.2467,-0.2467,-0.2466,0,-0.2276,-0.2326,-0.2341,-0.2367,-0.2456,-0.2483,-0.2537,-0.2594,-0.2611,-0.2651,-0.2653,-0.2639,-0.26,-0.2586,-0.2516,-0.2511,-0.2491,-0.2484,-0.2357,-0.2351,-0.2198,-0.2175,-0.2179,-0.2472,-0.2471,-0.2471,-0.2471,0,-0.224,-0.226,-0.2312,-0.2329,-0.2365,-0.2457,-0.2501,-0.256,-0.2619,-0.2592,-0.265,-0.2594,-0.2607,-0.2577,-0.2557,-0.2451,-0.2522,-0.2357,-0.2345,-0.2218,-0.2197,-0.2175,-0.219,-0.2474,-0.2474,-0.2473,-0.2473,0,-0.2186,-0.2214,-0.2235,-0.2313,-0.2332,-0.2362,-0.2451,-0.2458,-0.2557,-0.2526,-0.2525,-0.2557,-0.2496,-0.2517,-0.2495,-0.2455,-0.2354,-0.2364,-0.2231,-0.2196,-0.2049,-0.2072,-0.2011,-0.197,-0.2259,-0.2255,-0.2253,0,-0.2158,-0.2153,-0.2199,-0.2175,-0.2198,-0.2248,-0.2249,-0.2384,-0.2363,-0.2433,-0.2362,-0.2369,-0.2263,-0.2248,-0.2199,-0.2187,-0.2205,-0.2066,-0.1994,-0.2006,-0.2027,-0.2041,-0.2014,-0.1867,-0.1861,-0.1857,-0.1853,0,-0.2083,-0.2086,-0.209,-0.2049,-0.2027,-0.2033,-0.2038,-0.203,-0.2125,-0.2119,-0.2047,-0.201,-0.1971,-0.186,-0.1885,-0.1855,-0.1983,-0.1965,-0.2006,-0.1724,-0.1712,-0.1677,-0.1901,-0.1812,-0.1816,-0.1819,-0.1821,-0.1823,-0.1993,-0.1964,-0.1925,-0.1886,-0.1854,-0.1774,-0.173,-0.1721,-0.1692,-0.1654,-0.1693,-0.1623,-0.1616,-0.158,-0.1579,-0.1548,-0.1617,-0.1529,-0.157,-0.1598,-0.1483,-0.1616,-0.1473,-0.1475,-0.1476,-0.1478,-0.1479,0,-0.1845,-0.1803,-0.1753,-0.1674,-0.1574,-0.1616,-0.1539,-0.1469,-0.1362,-0.1359,-0.1303,-0.1257,-0.1186,-0.1259,-0.1237,-0.1206,-0.1218,-0.1224,-0.1245,-0.1249,-0.1386,-0.1289,-0.1059,-0.1059,-0.1059,-0.1059,-0.1059,-0.1059,-0.1743,-0.1632,-0.1613,-0.1401,-0.1346,-0.1183,-0.1115,-0.1042,-0.102,-0.0933,-0.0931,-0.0963,-0.1027,-0.1113,-0.1102,-0.107,-0.1114,-0.1015,-0.1133,-0.1268,-0.1302,-0.1335,-0.1248,-0.1014,-0.1014,-0.0925,-0.0925,-0.0924]},{"header":{"parameterUnit":"m.s-1","parameterCategory":2,"la1":30.2991,"la2":30.254,"lo1":-89.0895,"lo2":-89.0444,"dy":0.0017,"dx":0.0017,"nx":28,"ny":28,"refTime":"2025-03-25T21:00:00:Z","depth":"0","parameterNumber":3,"parameterNumberName":"V-component_of_CURRENTS"},"data":[0,0,0,0,0,0,0,0,0,0,0,0,0,0,0,0,0,0,0,0,0,0,0,0,0,0,0,0,0,0,0,0,0,0,0,0,0,0,0,0,0,0,0,0,0,0,0,0,0,0,0,0,0,0,0,0,0,0,-0.006,-0.0059,0,-0.0023,-0.0023,-0.0023,-0.0007,-0.0007,-0.0007,-0.0007,0.0046,0.0047,0.0049,0,0,0,0,0,0,0,0,0,0,0,0,0,-0.0115,-0.0114,-0.006,-0.0059,-0.0059,-0.0024,-0.0023,-0.0023,-0.0007,-0.0007,-0.0007,-0.0007,0.0045,0.0047,0.0049,0,0,0,0,0,0,0,0,0,0,0,0,0,-0.0086,-0.0113,-0.006,-0.0046,-0.0045,-0.0024,-0.0023,-0.0023,-0.0007,-0.0007,-0.0007,-0.0007,0.0045,0.0047,0.0049,0.0062,0,0,0.0055,0.0056,0,0,0,0,0,0,0,0,-0.0088,-0.0085,-0.0049,-0.0047,-0.0045,-0.0019,-0.0023,0.0007,-0.0007,-0.0022,-0.0007,-0.0007,0.0026,0.003,0.0035,0.0064,0.0066,0.0056,0.0057,0.0058,0.0058,0,0,0,0,0,0,0,-0.009,-0.0086,-0.0046,-0.0048,-0.0046,-0.0041,-0.0038,-0.0017,0.0001,-0.002,-0.0019,-0.0014,0.0027,0.0033,0.0037,0.0067,0.0055,0.0057,0.0059,0.0059,0.0129,0.0129,0,0,0,0,0,0,-0.0093,-0.0088,-0.0047,-0.0045,-0.0066,-0.004,-0.0036,-0.0028,0.0001,0.0005,-0.0014,-0.0013,0.003,0.0034,0.0039,0.0069,0.0058,0.006,0.0061,0.0128,0.0129,0.013,0,0,0,0,0,0,-0.0094,-0.009,-0.0049,-0.0065,-0.006,-0.0039,-0.0031,-0.0027,-0.002,0.0006,0.001,-0.001,0.003,0.0036,0.0064,0.007,0.0061,0.0063,0.0128,0.0129,0.0129,0.012,0,0,0,0,0,0,-0.0096,-0.009,-0.0088,-0.0065,-0.0059,-0.0033,-0.003,-0.0027,-0.0016,-0.0015,0.0011,0.0016,0.003,0.0061,0.0066,0.0073,0.0064,0.0127,0.0128,0.0129,0.0119,0.012,0.0121,0,0,0,0,0,-0.0098,-0.0097,-0.0088,-0.0083,-0.0055,-0.0032,-0.0028,-0.0015,-0.0016,-0.0009,0.001,0.0015,0.0071,0.0063,0.0069,0.0077,0.0126,0.0128,0.0129,0.0119,0.012,0.0121,0,0,0,0,0,0,-0.0125,-0.0094,-0.0084,-0.0075,-0.0053,-0.0029,-0.0024,-0.0015,0.0004,0.0002,0.0024,0.0031,0.0057,0.007,0.006,0.0101,0.0099,0.0102,0.0089,0.0091,0.0091,0.0091,0.0066,0,0,0,0,0,-0.0128,-0.0118,-0.0086,-0.0081,-0.0067,-0.0046,-0.0037,-0.0027,-0.0006,0.0002,0.0024,0.0045,0.0067,0.0081,0.0103,0.0126,0.0138,0.0135,0.0135,0.0136,0.0141,0.0163,0.0166,0.0134,0.0134,0.0134,0,0,-0.0139,-0.0121,-0.0117,-0.0086,-0.0069,-0.0048,-0.0041,-0.0027,-0.0011,0.0005,0.0032,0.0049,0.0074,0.01,0.0113,0.0112,0.0153,0.0138,0.0138,0.0143,0.0165,0.0168,0.017,0.0135,0.0135,0.0135,0,0,-0.0154,-0.0136,-0.0128,-0.0105,-0.0077,-0.0058,-0.0053,-0.0023,-0.0009,0.0019,0.0033,0.0058,0.0092,0.0114,0.0127,0.0147,0.0155,0.015,0.0155,0.0176,0.0179,0.0181,0.0201,0.0205,0.0151,0.0151,0.0151,0,-0.0171,-0.0154,-0.0124,-0.0106,-0.009,-0.0061,-0.0047,-0.0024,0.001,0.0023,0.0028,0.0081,0.0101,0.0133,0.0141,0.0149,0.0159,0.0147,0.0176,0.0179,0.0182,0.0202,0.0206,0.015,0.015,0.015,0.015,0,-0.0173,-0.0158,-0.0151,-0.0115,-0.009,-0.0079,-0.0036,-0.0013,0.0006,0.0029,0.0064,0.0095,0.0125,0.0135,0.0145,0.0174,0.0174,0.0172,0.0171,0.0184,0.0205,0.021,0.015,0.015,0.015,0.015,0,0,-0.0225,-0.0166,-0.0166,-0.0155,-0.0098,-0.0087,-0.0043,-0.0004,0.001,0.0052,0.0074,0.012,0.0131,0.0148,0.0163,0.0185,0.0213,0.0185,0.0186,0.0199,0.0257,0.027,0.0277,0.0211,0.0212,0.0212,0.0262,0,-0.0241,-0.0226,-0.0177,-0.0161,-0.0152,-0.0095,-0.006,-0.0019,0.0018,0.005,0.0091,0.0115,0.0138,0.0142,0.0173,0.0199,0.0226,0.0199,0.0247,0.0249,0.0254,0.0284,0.0299,0.0346,0.0268,0.0268,0.0269,0,-0.0259,-0.0252,-0.0243,-0.0197,-0.0185,-0.0165,-0.0116,-0.0079,-0.0011,0.0018,0.0065,0.0097,0.0145,0.0152,0.0224,0.0202,0.0233,0.0255,0.0258,0.0278,0.0272,0.0321,0.0358,0.0449,0.0277,0.0277,0.0276,0,-0.0339,-0.0295,-0.03,-0.0285,-0.0225,-0.0209,-0.0173,-0.0103,-0.0081,-0.0011,0.0003,0.0081,0.0098,0.0162,0.0226,0.0221,0.0297,0.0295,0.0341,0.0342,0.037,0.0372,0.0498,0.0347,0.0346,0.0346,0.0346,0,-0.0387,-0.0388,-0.0344,-0.0356,-0.0361,-0.0283,-0.0275,-0.0219,-0.0152,-0.0133,-0.0035,-0.0011,0.0097,0.0159,0.0224,0.0304,0.03,0.0353,0.0361,0.0367,0.0368,0.046,0.0483,0.0348,0.0348,0.0347,0.0347,0,-0.0472,-0.0438,-0.0452,-0.0415,-0.0404,-0.0415,-0.0357,-0.034,-0.0265,-0.0236,-0.0218,-0.0093,0.0005,0.0117,0.0221,0.0287,0.0414,0.0393,0.0396,0.0403,0.0534,0.0553,0.0649,0.0688,0.0461,0.0462,0.0462,0,-0.0508,-0.053,-0.0528,-0.054,-0.0528,-0.0523,-0.0506,-0.042,-0.0394,-0.029,-0.028,-0.0169,-0.0071,0.0109,0.0248,0.0389,0.044,0.0471,0.0473,0.0559,0.0586,0.0586,0.0611,0.0507,0.0508,0.0508,0.0509,0,-0.0591,-0.0596,-0.0612,-0.0643,-0.0646,-0.064,-0.0608,-0.0606,-0.0494,-0.0445,-0.0344,-0.0253,-0.0058,0.0137,0.0323,0.0399,0.053,0.0489,0.0584,0.0644,0.0647,0.0681,0.0453,0.0516,0.0515,0.0514,0.0514,0.0514,-0.0646,-0.0687,-0.0703,-0.0726,-0.0731,-0.072,-0.071,-0.0656,-0.0602,-0.0475,-0.0393,-0.0202,0.0058,0.0342,0.0421,0.062,0.0584,0.0688,0.0707,0.0701,0.0737,0.0524,0.0589,0.0589,0.0588,0.0588,0.0588,0,-0.0698,-0.073,-0.0767,-0.0779,-0.0784,-0.0767,-0.0736,-0.0695,-0.062,-0.0477,-0.0343,0.0015,0.0265,0.0491,0.0755,0.0851,0.0852,0.0897,0.0916,0.0934,0.0762,0.0765,0.0865,0.0865,0.0864,0.0864,0.0864,0.0864,-0.0722,-0.0774,-0.0788,-0.0801,-0.0805,-0.0786,-0.0764,-0.0689,-0.0576,-0.0323,-0.008,0.0118,0.0451,0.0838,0.1069,0.1075,0.1151,0.1121,0.1167,0.1071,0.1053,0.1036,0.1048,0.1205,0.1206,0.1334,0.1335,0.1336]}],[{"header":{"parameterUnit":"m.s-1","parameterCategory":2,"la1":30.2991,"la2":30.254,"lo1":-89.0895,"lo2":-89.0444,"dy":0.0017,"dx":0.0017,"nx":28,"ny":28,"refTime":"2025-03-25T21:00:00:Z","depth":"2","parameterNumber":2,"parameterNumberName":"U-component_of_CURRENTS"},"data":[0,0,0,0,0,0,0,0,0,0,0,0,0,0,0,0,0,0,0,0,0,0,0,0,0,0,0,0,0,0,0,0,0,0,0,0,0,0,0,0,0,0,0,0,0,0,0,0,0,0,0,0,0,0,0,0,0,0,-0.1957,-0.1956,0,-0.1896,-0.1896,-0.1896,-0.1835,-0.1834,-0.1833,-0.1831,-0.1792,-0.1792,-0.1792,0,0,0,0,0,0,0,0,0,0,0,0,0,-0.1833,-0.1837,-0.1957,-0.1955,-0.1954,-0.1896,-0.1896,-0.1896,-0.1836,-0.1834,-0.1832,-0.1831,-0.1792,-0.1792,-0.1792,0,0,0,0,0,0,0,0,0,0,0,0,0,-0.1847,-0.1838,-0.1957,-0.1913,-0.1908,-0.1896,-0.1896,-0.1895,-0.1836,-0.1834,-0.1832,-0.183,-0.1792,-0.1792,-0.1792,-0.1834,0,0,-0.1793,-0.1793,0,0,0,0,0,0,0,0,-0.1847,-0.1853,-0.1921,-0.1916,-0.191,-0.1866,-0.1837,-0.1874,-0.1836,-0.187,-0.1831,-0.1829,-0.1816,-0.1814,-0.1816,-0.1833,-0.1831,-0.1793,-0.1793,-0.1793,-0.1794,0,0,0,0,0,0,0,-0.1846,-0.1853,-0.1939,-0.1919,-0.1913,-0.1831,-0.1833,-0.1843,-0.186,-0.1866,-0.186,-0.1845,-0.1814,-0.1816,-0.1814,-0.183,-0.1793,-0.1793,-0.1794,-0.1794,-0.1763,-0.1762,0,0,0,0,0,0,-0.1855,-0.1855,-0.1941,-0.1936,-0.1866,-0.1835,-0.1838,-0.1887,-0.1859,-0.1851,-0.1847,-0.1842,-0.1816,-0.1814,-0.1813,-0.1822,-0.1793,-0.1794,-0.1794,-0.1764,-0.1763,-0.1762,0,0,0,0,0,0,-0.1854,-0.1866,-0.1943,-0.1884,-0.1887,-0.184,-0.1895,-0.1887,-0.1903,-0.1843,-0.1836,-0.1871,-0.1814,-0.1812,-0.181,-0.1821,-0.1794,-0.1794,-0.1765,-0.1763,-0.1762,-0.1866,0,0,0,0,0,0,-0.1852,-0.1868,-0.1922,-0.1888,-0.1891,-0.1936,-0.1896,-0.1887,-0.1892,-0.1886,-0.1862,-0.1855,-0.1813,-0.181,-0.181,-0.1821,-0.1794,-0.1766,-0.1764,-0.1763,-0.1863,-0.1868,-0.1872,0,0,0,0,0,-0.1848,-0.193,-0.1928,-0.1937,-0.1966,-0.1936,-0.1931,-0.1891,-0.1896,-0.1901,-0.1877,-0.1856,-0.1796,-0.1811,-0.1811,-0.1822,-0.1767,-0.1765,-0.1763,-0.1862,-0.1867,-0.1872,0,0,0,0,0,0,-0.1948,-0.193,-0.1926,-0.2014,-0.1973,-0.1923,-0.1924,-0.1918,-0.1911,-0.1902,-0.1872,-0.1863,-0.1858,-0.1824,-0.1841,-0.1797,-0.1768,-0.1766,-0.1843,-0.1848,-0.1852,-0.1856,-0.1795,0,0,0,0,0,-0.1988,-0.1978,-0.1987,-0.2017,-0.203,-0.1991,-0.1983,-0.1951,-0.1926,-0.1922,-0.1914,-0.188,-0.185,-0.1839,-0.1808,-0.1815,-0.1808,-0.1806,-0.1811,-0.1815,-0.1812,-0.1815,-0.1821,-0.1754,-0.1754,-0.1754,0,0,-0.1981,-0.1996,-0.1971,-0.2023,-0.1995,-0.2023,-0.1982,-0.1961,-0.1957,-0.1921,-0.1938,-0.1912,-0.1855,-0.1837,-0.183,-0.1813,-0.1834,-0.1812,-0.1817,-0.1811,-0.1813,-0.182,-0.1827,-0.1753,-0.1753,-0.1753,0,0,-0.1954,-0.2038,-0.2017,-0.202,-0.2002,-0.2025,-0.2037,-0.2026,-0.2002,-0.2018,-0.1967,-0.1946,-0.1943,-0.1876,-0.1848,-0.1861,-0.1862,-0.1851,-0.188,-0.1884,-0.1891,-0.1897,-0.1933,-0.1941,-0.1847,-0.1847,-0.1848,0,-0.1965,-0.199,-0.1999,-0.2018,-0.2032,-0.2049,-0.2071,-0.2063,-0.2039,-0.2028,-0.2028,-0.1996,-0.1952,-0.1905,-0.1889,-0.1874,-0.1894,-0.1879,-0.1896,-0.1901,-0.1905,-0.194,-0.1948,-0.1852,-0.1852,-0.1851,-0.1851,0,-0.1928,-0.1962,-0.1962,-0.2006,-0.2044,-0.2046,-0.2076,-0.2106,-0.2135,-0.2116,-0.2095,-0.2039,-0.2011,-0.1989,-0.1949,-0.1935,-0.1949,-0.1915,-0.19,-0.1919,-0.1954,-0.196,-0.1859,-0.1857,-0.1856,-0.1855,0,0,-0.1934,-0.1928,-0.1947,-0.1943,-0.2045,-0.2064,-0.2119,-0.216,-0.2181,-0.2172,-0.218,-0.2112,-0.2092,-0.2052,-0.1992,-0.1983,-0.2034,-0.1969,-0.1967,-0.2036,-0.2088,-0.1935,-0.1927,-0.2025,-0.2026,-0.2027,-0.2115,0,-0.1908,-0.1924,-0.1965,-0.1998,-0.2019,-0.2096,-0.2159,-0.219,-0.2215,-0.2238,-0.217,-0.2154,-0.2107,-0.2092,-0.208,-0.2042,-0.2049,-0.2015,-0.203,-0.2031,-0.1917,-0.1927,-0.1754,-0.1803,-0.2121,-0.2122,-0.2123,0,-0.1868,-0.1911,-0.193,-0.1981,-0.2016,-0.2071,-0.2204,-0.2228,-0.2266,-0.2281,-0.2269,-0.2233,-0.2199,-0.2158,-0.2144,-0.2139,-0.2119,-0.2098,-0.2101,-0.1919,-0.1886,-0.1822,-0.1802,-0.2133,-0.2132,-0.2132,-0.2131,0,-0.1828,-0.1875,-0.1895,-0.1914,-0.2024,-0.206,-0.2145,-0.2227,-0.2235,-0.2278,-0.2297,-0.2292,-0.2262,-0.2263,-0.2196,-0.2198,-0.2194,-0.2187,-0.2038,-0.2031,-0.1858,-0.1831,-0.2181,-0.2181,-0.218,-0.218,-0.218,0,-0.1771,-0.1798,-0.1861,-0.1881,-0.1945,-0.2026,-0.2083,-0.2163,-0.2234,-0.2217,-0.2277,-0.2235,-0.2285,-0.2264,-0.2243,-0.2149,-0.2233,-0.2044,-0.2028,-0.1888,-0.1863,-0.2112,-0.2103,-0.2183,-0.2183,-0.2182,-0.2181,0,-0.1672,-0.1713,-0.1732,-0.1854,-0.1886,-0.1925,-0.2028,-0.2052,-0.2156,-0.2135,-0.2146,-0.2212,-0.2179,-0.2205,-0.2201,-0.2163,-0.2118,-0.2056,-0.1899,-0.1859,-0.1966,-0.1961,-0.195,-0.1945,-0.1941,-0.1938,-0.1935,0,-0.1643,-0.1606,-0.169,-0.1703,-0.1745,-0.1809,-0.185,-0.1986,-0.1983,-0.2054,-0.2011,-0.2028,-0.1951,-0.1945,-0.1903,-0.1885,-0.1962,-0.1726,-0.1653,-0.1948,-0.1936,-0.1938,-0.1938,-0.151,-0.1503,-0.1498,-0.1494,0,-0.1567,-0.1553,-0.1574,-0.159,-0.1613,-0.1639,-0.1678,-0.1683,-0.1793,-0.1802,-0.1758,-0.172,-0.1685,-0.1571,-0.1571,-0.1532,-0.1727,-0.1615,-0.1972,-0.1557,-0.1528,-0.1517,-0.1534,-0.1449,-0.1453,-0.1457,-0.1459,-0.1461,-0.1514,-0.1468,-0.1443,-0.1443,-0.1471,-0.1445,-0.1415,-0.1444,-0.1436,-0.1414,-0.1451,-0.1365,-0.1392,-0.1256,-0.1217,-0.1231,-0.1343,-0.133,-0.1348,-0.1372,-0.1267,-0.1227,-0.1077,-0.1079,-0.1081,-0.1083,-0.1084,0,-0.1398,-0.1326,-0.1309,-0.1285,-0.1245,-0.1309,-0.1287,-0.1233,-0.1161,-0.1147,-0.1098,-0.0959,-0.0877,-0.093,-0.0852,-0.0861,-0.0903,-0.0853,-0.0906,-0.0948,-0.0986,-0.0866,-0.0568,-0.0567,-0.0566,-0.0565,0,0,-0.1309,-0.1217,-0.1175,-0.106,-0.1054,-0.0967,-0.093,-0.0875,-0.0845,-0.0751,-0.0709,-0.0755,-0.0818,-0.0658,-0.0652,-0.0589,-0.0765,-0.0562,-0.0964,-0.1061,-0.1098,-0.1236,-0.1091,0,0,0,0,0]},{"header":{"parameterUnit":"m.s-1","parameterCategory":2,"la1":30.2991,"la2":30.254,"lo1":-89.0895,"lo2":-89.0444,"dy":0.0017,"dx":0.0017,"nx":28,"ny":28,"refTime":"2025-03-25T21:00:00:Z","depth":"2","parameterNumber":3,"parameterNumberName":"V-component_of_CURRENTS"},"data":[0,0,0,0,0,0,0,0,0,0,0,0,0,0,0,0,0,0,0,0,0,0,0,0,0,0,0,0,0,0,0,0,0,0,0,0,0,0,0,0,0,0,0,0,0,0,0,0,0,0,0,0,0,0,0,0,0,0,-0.0216,-0.0216,0,-0.018,-0.018,-0.0179,-0.018,-0.0181,-0.0181,-0.0181,-0.0117,-0.0115,-0.0113,0,0,0,0,0,0,0,0,0,0,0,0,0,-0.0259,-0.0258,-0.0216,-0.0216,-0.0215,-0.018,-0.018,-0.0179,-0.018,-0.0181,-0.0181,-0.0182,-0.0118,-0.0116,-0.0113,0,0,0,0,0,0,0,0,0,0,0,0,0,-0.0234,-0.0258,-0.0216,-0.0211,-0.021,-0.018,-0.018,-0.0179,-0.018,-0.0181,-0.0181,-0.0182,-0.0119,-0.0116,-0.0113,-0.0081,0,0,-0.0103,-0.0102,0,0,0,0,0,0,0,0,-0.0236,-0.0233,-0.0212,-0.0211,-0.021,-0.0184,-0.0171,-0.0145,-0.018,-0.0192,-0.0181,-0.0182,-0.0136,-0.0132,-0.0125,-0.0078,-0.0076,-0.0103,-0.0101,-0.01,-0.0099,0,0,0,0,0,0,0,-0.0237,-0.0234,-0.0203,-0.0211,-0.021,-0.02,-0.0198,-0.0166,-0.0162,-0.0191,-0.0191,-0.0185,-0.0136,-0.0128,-0.0124,-0.0075,-0.0103,-0.01,-0.0098,-0.0097,-0.0021,-0.0021,0,0,0,0,0,0,-0.024,-0.0236,-0.0204,-0.0202,-0.0223,-0.0199,-0.0196,-0.0193,-0.0162,-0.0158,-0.0185,-0.0185,-0.0133,-0.0127,-0.0121,-0.0082,-0.01,-0.0097,-0.0095,-0.0021,-0.0021,-0.002,0,0,0,0,0,0,-0.0242,-0.0238,-0.0206,-0.0217,-0.0212,-0.0198,-0.0194,-0.0192,-0.0181,-0.0158,-0.0153,-0.0176,-0.0134,-0.0126,-0.0088,-0.008,-0.0095,-0.0093,-0.0021,-0.0021,-0.0021,-0.0004,0,0,0,0,0,0,-0.0243,-0.0239,-0.023,-0.0217,-0.0212,-0.0183,-0.0193,-0.0191,-0.0176,-0.0177,-0.0148,-0.0143,-0.0133,-0.0092,-0.0084,-0.0076,-0.009,-0.0021,-0.0021,-0.0021,-0.0005,-0.0003,-0.0002,0,0,0,0,0,-0.0245,-0.0236,-0.023,-0.0225,-0.0202,-0.0183,-0.0178,-0.0171,-0.0175,-0.0165,-0.0147,-0.0144,-0.0086,-0.0089,-0.008,-0.007,-0.0021,-0.0021,-0.0021,-0.0006,-0.0004,-0.0002,0,0,0,0,0,0,-0.0252,-0.0234,-0.0228,-0.0214,-0.0196,-0.0182,-0.0173,-0.0166,-0.0144,-0.0148,-0.0127,-0.012,-0.0089,-0.008,-0.0084,-0.0051,-0.0059,-0.0056,-0.005,-0.0048,-0.0047,-0.0044,-0.0088,0,0,0,0,0,-0.0248,-0.0242,-0.0217,-0.021,-0.0197,-0.0182,-0.0171,-0.0169,-0.0151,-0.0143,-0.0119,-0.0101,-0.0081,-0.0064,-0.0046,-0.0013,0.0,-0.0008,-0.0006,-0.0005,0.0002,0.0027,0.0032,-0.0019,-0.0019,-0.0019,0,0,-0.0256,-0.0241,-0.0241,-0.0211,-0.02,-0.0177,-0.0178,-0.0166,-0.0151,-0.0137,-0.0104,-0.0089,-0.0071,-0.0044,-0.003,-0.0033,0.0017,-0.0005,-0.0003,0.0003,0.0028,0.0033,0.0037,-0.0019,-0.0019,-0.0019,0,0,-0.027,-0.0248,-0.0246,-0.0226,-0.0202,-0.0179,-0.0172,-0.0149,-0.0139,-0.0103,-0.0099,-0.0072,-0.0034,-0.002,-0.0009,0.0016,0.0023,0.001,0.0026,0.005,0.0055,0.0059,0.0087,0.0094,0.0011,0.0011,0.0011,0,-0.0279,-0.027,-0.0241,-0.0228,-0.0212,-0.0177,-0.0166,-0.0141,-0.0109,-0.0094,-0.0093,-0.0038,-0.0021,0.0012,0.0014,0.0021,0.0033,0.002,0.0053,0.0057,0.0062,0.0089,0.0096,0.0012,0.0012,0.0012,0.0012,0,-0.029,-0.0276,-0.0272,-0.0239,-0.0209,-0.02,-0.0154,-0.0123,-0.0098,-0.0076,-0.0037,-0.001,0.002,0.0025,0.0031,0.0063,0.0062,0.0052,0.0051,0.0068,0.0096,0.0103,0.0013,0.0013,0.0013,0.0013,0,0,-0.0336,-0.0291,-0.0289,-0.0282,-0.022,-0.0205,-0.0152,-0.0102,-0.0081,-0.0036,-0.0008,0.0035,0.0046,0.0058,0.0066,0.009,0.0132,0.0082,0.0083,0.0115,0.0188,0.019,0.0198,0.0125,0.0126,0.0127,0.0198,0,-0.0357,-0.0347,-0.0303,-0.0284,-0.0276,-0.021,-0.0166,-0.0115,-0.0069,-0.0027,0.0014,0.0039,0.0058,0.0061,0.0096,0.0116,0.015,0.0114,0.0163,0.0165,0.0169,0.0206,0.0182,0.0243,0.0205,0.0206,0.0207,0,-0.0385,-0.0374,-0.0368,-0.032,-0.0307,-0.028,-0.0207,-0.0167,-0.0084,-0.0052,0.0003,0.0034,0.0089,0.0087,0.0167,0.014,0.0171,0.0192,0.0194,0.0197,0.0181,0.0218,0.0257,0.0219,0.0218,0.0217,0.0217,0,-0.0457,-0.0419,-0.0419,-0.0407,-0.0339,-0.0318,-0.0271,-0.0186,-0.0161,-0.0078,-0.0058,0.003,0.0048,0.0117,0.0178,0.017,0.0258,0.0249,0.0289,0.0289,0.0279,0.0277,0.031,0.031,0.031,0.0309,0.0309,0,-0.051,-0.0506,-0.0461,-0.047,-0.0461,-0.0388,-0.0368,-0.03,-0.0226,-0.0196,-0.0095,-0.0063,0.0052,0.012,0.0185,0.0266,0.027,0.0308,0.0313,0.0284,0.0281,0.0263,0.0257,0.0312,0.0311,0.0311,0.031,0,-0.059,-0.0559,-0.0567,-0.052,-0.0506,-0.0507,-0.0443,-0.0419,-0.034,-0.0298,-0.0276,-0.014,-0.0035,0.0082,0.0193,0.0256,0.0339,0.0361,0.0326,0.0326,0.0356,0.0349,0.0428,0.0429,0.043,0.043,0.0431,0,-0.0621,-0.0645,-0.0633,-0.0638,-0.0621,-0.0607,-0.0583,-0.0494,-0.0461,-0.0348,-0.0329,-0.0212,-0.0105,0.008,0.0212,0.0354,0.0349,0.0399,0.0385,0.0374,0.0371,0.0363,0.0356,0.0382,0.0382,0.0382,0.0382,0,-0.0692,-0.0699,-0.0707,-0.0728,-0.0724,-0.0709,-0.0669,-0.0661,-0.0545,-0.0488,-0.0376,-0.0282,-0.0091,0.0082,0.026,0.0331,0.0382,0.0404,0.041,0.0349,0.0334,0.0329,0.0323,0.0382,0.0382,0.0382,0.0382,0.0382,-0.0737,-0.077,-0.0785,-0.0798,-0.0796,-0.0776,-0.0759,-0.0699,-0.0636,-0.0502,-0.0417,-0.024,-0.0088,0.0188,0.0288,0.0386,0.0394,0.0423,0.0422,0.0421,0.0396,0.0382,0.0435,0.0436,0.0436,0.0436,0.0436,0,-0.0779,-0.0805,-0.0836,-0.084,-0.084,-0.0819,-0.0777,-0.0732,-0.0648,-0.0509,-0.0373,-0.0176,0.0019,0.0169,0.0324,0.0414,0.04,0.042,0.0388,0.0388,0.0387,0.0359,0.039,0.039,0.039,0.039,0,0,-0.0798,-0.0838,-0.0853,-0.0859,-0.0857,-0.0827,-0.0799,-0.0721,-0.0613,-0.0464,-0.0313,-0.0123,0.0054,0.0156,0.0257,0.0329,0.033,0.0327,0.0356,0.0305,0.0303,0.0383,0.0339,0,0,0,0,0]}],[{"header":{"parameterUnit":"m.s-1","parameterCategory":2,"la1":30.2991,"la2":30.254,"lo1":-89.0895,"lo2":-89.0444,"dy":0.0017,"dx":0.0017,"nx":28,"ny":28,"refTime":"2025-03-25T21:00:00:Z","depth":"4","parameterNumber":2,"parameterNumberName":"U-component_of_CURRENTS"},"data":[0,0,0,0,0,0,0,0,0,0,0,0,0,0,0,0,0,0,0,0,0,0,0,0,0,0,0,0,0,0,0,0,0,0,0,0,0,0,0,0,0,0,0,0,0,0,0,0,0,0,0,0,0,0,0,0,0,0,-0.0204,-0.0204,0,-0.0228,-0.0228,-0.0229,-0.0247,-0.0247,-0.0247,-0.0247,-0.032,-0.0322,-0.0324,0,0,0,0,0,0,0,0,0,0,0,0,0,-0.0193,-0.0193,-0.0204,-0.0204,-0.0204,-0.0228,-0.0228,-0.0229,-0.0247,-0.0247,-0.0247,-0.0247,-0.032,-0.0322,-0.0324,0,0,0,0,0,0,0,0,0,0,0,0,0,-0.0208,-0.0193,-0.0204,-0.0214,-0.0215,-0.0228,-0.0228,-0.0229,-0.0247,-0.0247,-0.0247,-0.0247,-0.0319,-0.0322,-0.0325,-0.0347,0,0,-0.0334,-0.0335,0,0,0,0,0,0,0,0,-0.0207,-0.0209,-0.0212,-0.0213,-0.0214,-0.0232,-0.0251,-0.027,-0.0247,-0.0238,-0.0247,-0.0247,-0.0293,-0.0298,-0.0307,-0.035,-0.0354,-0.0334,-0.0336,-0.0338,-0.0338,0,0,0,0,0,0,0,-0.0206,-0.0208,-0.0217,-0.0212,-0.0213,-0.0223,-0.0225,-0.0255,-0.027,-0.0239,-0.024,-0.0237,-0.0295,-0.0304,-0.0309,-0.0355,-0.0334,-0.0337,-0.0339,-0.034,-0.043,-0.0431,0,0,0,0,0,0,-0.0196,-0.0207,-0.0216,-0.0217,-0.0207,-0.0223,-0.0226,-0.0229,-0.0268,-0.0273,-0.0237,-0.0238,-0.0299,-0.0305,-0.0312,-0.0359,-0.0338,-0.034,-0.0342,-0.0429,-0.043,-0.0431,0,0,0,0,0,0,-0.0196,-0.0197,-0.0215,-0.021,-0.0212,-0.0223,-0.0227,-0.0229,-0.0241,-0.0266,-0.0272,-0.0246,-0.0299,-0.0307,-0.034,-0.0361,-0.0342,-0.0345,-0.0429,-0.043,-0.043,-0.0441,0,0,0,0,0,0,-0.0196,-0.0197,-0.0203,-0.0209,-0.0212,-0.0229,-0.0226,-0.023,-0.0238,-0.0239,-0.0276,-0.0282,-0.0299,-0.0336,-0.0343,-0.0365,-0.0347,-0.0428,-0.0429,-0.043,-0.044,-0.0443,-0.0444,0,0,0,0,0,-0.0195,-0.0204,-0.0203,-0.0204,-0.0217,-0.0229,-0.0233,-0.0241,-0.0239,-0.025,-0.0269,-0.0281,-0.0347,-0.0339,-0.0348,-0.0371,-0.0428,-0.0429,-0.043,-0.0439,-0.0442,-0.0444,0,0,0,0,0,0,-0.021,-0.0207,-0.0205,-0.0215,-0.0222,-0.0231,-0.0239,-0.0243,-0.0266,-0.0269,-0.029,-0.0299,-0.0332,-0.0349,-0.0338,-0.0398,-0.0389,-0.0392,-0.0393,-0.0396,-0.0398,-0.0407,-0.035,0,0,0,0,0,-0.0212,-0.0234,-0.0216,-0.0242,-0.0225,-0.0232,-0.0238,-0.0245,-0.026,-0.027,-0.0299,-0.0324,-0.0345,-0.0367,-0.039,-0.0428,-0.0442,-0.0447,-0.0449,-0.0451,-0.0464,-0.0478,-0.0482,-0.0435,-0.0435,-0.0435,0,0,-0.0237,-0.0237,-0.0253,-0.0249,-0.0248,-0.0249,-0.0236,-0.0248,-0.0271,-0.0276,-0.0323,-0.0332,-0.0354,-0.0391,-0.0409,-0.041,-0.0476,-0.0452,-0.0454,-0.0466,-0.048,-0.0484,-0.0488,-0.0436,-0.0435,-0.0435,0,0,-0.0296,-0.0276,-0.0301,-0.0293,-0.0286,-0.0277,-0.0277,-0.0281,-0.0293,-0.0328,-0.0334,-0.0354,-0.0401,-0.0419,-0.0431,-0.0459,-0.0478,-0.0468,-0.0498,-0.0511,-0.0515,-0.0519,-0.0558,-0.0565,-0.0477,-0.0477,-0.0477,0,-0.0308,-0.0338,-0.0315,-0.0321,-0.0314,-0.0286,-0.0295,-0.0305,-0.0337,-0.0349,-0.0346,-0.0398,-0.0414,-0.045,-0.0461,-0.0466,-0.0484,-0.0486,-0.0513,-0.0517,-0.0521,-0.056,-0.0567,-0.0478,-0.0478,-0.0478,-0.0478,0,-0.0358,-0.0388,-0.0393,-0.039,-0.0386,-0.0387,-0.0368,-0.0387,-0.0386,-0.0395,-0.0427,-0.0442,-0.0477,-0.0478,-0.0482,-0.0519,-0.0529,-0.0506,-0.0506,-0.0526,-0.0566,-0.0574,-0.0479,-0.0479,-0.0478,-0.0478,0,0,-0.0335,-0.0411,-0.0407,-0.043,-0.0408,-0.0406,-0.0433,-0.0433,-0.0458,-0.047,-0.0506,-0.0524,-0.0524,-0.0538,-0.0542,-0.0553,-0.0595,-0.0549,-0.0549,-0.0588,-0.0649,-0.0615,-0.062,-0.0575,-0.0576,-0.0577,-0.0673,0,-0.0359,-0.0426,-0.0437,-0.0481,-0.0494,-0.0472,-0.0502,-0.0511,-0.052,-0.0552,-0.054,-0.0578,-0.0548,-0.0577,-0.0577,-0.0587,-0.0614,-0.0573,-0.0625,-0.0628,-0.0593,-0.0627,-0.058,-0.0678,-0.068,-0.0681,-0.0682,0,-0.0354,-0.0413,-0.0482,-0.0541,-0.0531,-0.0564,-0.0576,-0.0602,-0.0628,-0.0642,-0.0659,-0.065,-0.0674,-0.0644,-0.0671,-0.0647,-0.0662,-0.066,-0.0663,-0.0634,-0.0607,-0.0651,-0.0696,-0.0695,-0.0694,-0.0693,-0.0692,0,-0.0334,-0.0412,-0.0482,-0.0493,-0.0559,-0.0597,-0.062,-0.065,-0.0679,-0.0723,-0.0761,-0.0746,-0.0792,-0.0764,-0.0753,-0.0725,-0.0779,-0.0738,-0.0727,-0.0726,-0.0723,-0.0718,-0.0775,-0.0774,-0.0774,-0.0774,-0.0774,0,-0.032,-0.0361,-0.0502,-0.0533,-0.0604,-0.0635,-0.0701,-0.0729,-0.0786,-0.0826,-0.0828,-0.0866,-0.0827,-0.0836,-0.0792,-0.0787,-0.0816,-0.075,-0.0747,-0.0728,-0.0722,-0.073,-0.0723,-0.0778,-0.0777,-0.0776,-0.0775,0,-0.0286,-0.0373,-0.0461,-0.0578,-0.0617,-0.0673,-0.0765,-0.08,-0.0877,-0.0944,-0.0967,-0.0992,-0.1001,-0.0954,-0.094,-0.0877,-0.0845,-0.0845,-0.0863,-0.0856,-0.0778,-0.0771,-0.0839,-0.0839,-0.0838,-0.0838,-0.0838,0,-0.0274,-0.033,-0.0496,-0.0549,-0.0616,-0.0713,-0.0763,-0.0847,-0.0896,-0.1006,-0.1034,-0.1088,-0.1083,-0.1032,-0.0985,-0.0916,-0.0892,-0.089,-0.0796,-0.0794,-0.0785,-0.0778,-0.0772,-0.0837,-0.0837,-0.0837,-0.0837,0,-0.0235,-0.0313,-0.0395,-0.0536,-0.0623,-0.0705,-0.0808,-0.0856,-0.0946,-0.1028,-0.1067,-0.105,-0.1082,-0.1011,-0.0991,-0.0925,-0.0877,-0.0885,-0.0885,-0.0796,-0.0792,-0.0782,-0.0776,-0.0835,-0.0836,-0.0836,-0.0836,0,-0.0192,-0.025,-0.0375,-0.0487,-0.0578,-0.0664,-0.074,-0.0813,-0.0879,-0.101,-0.1022,-0.105,-0.1088,-0.1024,-0.0982,-0.093,-0.0893,-0.0833,-0.0834,-0.0836,-0.0779,-0.077,-0.0821,0,0,0,0,0,-0.0158,-0.0214,-0.0297,-0.0433,-0.0517,-0.0585,-0.0724,-0.08,-0.0929,-0.0933,-0.0976,-0.098,-0.0947,-0.0956,-0.0891,-0.0966,-0.0888,-0.0888,-0.0817,-0.0828,-0.083,-0.0757,0,0,0,0,0,0,-0.0133,-0.0209,-0.0276,-0.0347,-0.0413,-0.0516,-0.0606,-0.0712,-0.0735,-0.0849,-0.0829,-0.0905,-0.0873,-0.0944,-0.0857,-0.086,-0.0794,-0.0909,-0.0906,-0.0827,-0.0829,-0.083,-0.0755,0,0,0,0,0]},{"header":{"parameterUnit":"m.s-1","parameterCategory":2,"la1":30.2991,"la2":30.254,"lo1":-89.0895,"lo2":-89.0444,"dy":0.0017,"dx":0.0017,"nx":28,"ny":28,"refTime":"2025-03-25T21:00:00:Z","depth":"4","parameterNumber":3,"parameterNumberName":"V-component_of_CURRENTS"},"data":[0,0,0,0,0,0,0,0,0,0,0,0,0,0,0,0,0,0,0,0,0,0,0,0,0,0,0,0,0,0,0,0,0,0,0,0,0,0,0,0,0,0,0,0,0,0,0,0,0,0,0,0,0,0,0,0,0,0,-0.0408,-0.0408,0,-0.0423,-0.0423,-0.0424,-0.0425,-0.0424,-0.0424,-0.0424,-0.0415,-0.0415,-0.0415,0,0,0,0,0,0,0,0,0,0,0,0,0,-0.0359,-0.036,-0.0408,-0.0408,-0.0408,-0.0423,-0.0423,-0.0424,-0.0425,-0.0424,-0.0424,-0.0424,-0.0415,-0.0415,-0.0415,0,0,0,0,0,0,0,0,0,0,0,0,0,-0.0378,-0.036,-0.0408,-0.041,-0.0411,-0.0423,-0.0423,-0.0424,-0.0425,-0.0424,-0.0424,-0.0424,-0.0415,-0.0415,-0.0415,-0.0421,0,0,-0.0415,-0.0415,0,0,0,0,0,0,0,0,-0.0377,-0.038,-0.041,-0.041,-0.041,-0.0422,-0.0403,-0.0421,-0.0425,-0.0419,-0.0424,-0.0424,-0.0415,-0.0415,-0.0419,-0.042,-0.042,-0.0415,-0.0415,-0.0415,-0.0415,0,0,0,0,0,0,0,-0.0376,-0.0379,-0.0414,-0.041,-0.041,-0.0404,-0.0406,-0.0407,-0.0418,-0.042,-0.042,-0.0422,-0.0415,-0.0419,-0.0419,-0.042,-0.0415,-0.0415,-0.0415,-0.0415,-0.0431,-0.0431,0,0,0,0,0,0,-0.0375,-0.0378,-0.0413,-0.0414,-0.0393,-0.0405,-0.0408,-0.0418,-0.0419,-0.0419,-0.0422,-0.0422,-0.042,-0.0419,-0.0419,-0.0416,-0.0415,-0.0415,-0.0415,-0.043,-0.0431,-0.0432,0,0,0,0,0,0,-0.0374,-0.0379,-0.0413,-0.0396,-0.04,-0.0406,-0.0418,-0.0419,-0.0425,-0.0421,-0.042,-0.0427,-0.0419,-0.0419,-0.0418,-0.0416,-0.0415,-0.0415,-0.043,-0.0431,-0.0431,-0.0417,0,0,0,0,0,0,-0.0373,-0.0378,-0.0385,-0.0396,-0.0401,-0.0422,-0.0418,-0.0419,-0.0426,-0.0426,-0.0425,-0.0424,-0.0419,-0.0418,-0.0418,-0.0416,-0.0415,-0.0429,-0.043,-0.0431,-0.0417,-0.0417,-0.0417,0,0,0,0,0,-0.0371,-0.0388,-0.0386,-0.039,-0.0411,-0.0422,-0.0424,-0.0427,-0.0427,-0.0432,-0.0428,-0.0424,-0.0424,-0.0418,-0.0418,-0.0416,-0.0429,-0.043,-0.0431,-0.0417,-0.0417,-0.0417,0,0,0,0,0,0,-0.0372,-0.039,-0.0388,-0.0409,-0.0413,-0.0423,-0.0431,-0.0431,-0.0433,-0.0433,-0.0427,-0.0425,-0.0426,-0.0427,-0.0421,-0.0426,-0.0428,-0.0429,-0.0417,-0.0417,-0.0417,-0.0402,-0.0415,0,0,0,0,0,-0.0374,-0.0389,-0.04,-0.0413,-0.042,-0.0424,-0.043,-0.0431,-0.0435,-0.0436,-0.0433,-0.0433,-0.0431,-0.0428,-0.0431,-0.043,-0.04,-0.0431,-0.0432,-0.0432,-0.0421,-0.0363,-0.0356,-0.0435,-0.0435,-0.0435,0,0,-0.0379,-0.0387,-0.0397,-0.0413,-0.0419,-0.043,-0.0428,-0.044,-0.0438,-0.0434,-0.0434,-0.0434,-0.0433,-0.0432,-0.0432,-0.043,-0.0397,-0.0433,-0.0433,-0.0422,-0.0363,-0.0355,-0.0348,-0.0436,-0.0436,-0.0436,0,0,-0.0391,-0.0403,-0.0419,-0.0425,-0.0434,-0.0436,-0.044,-0.045,-0.0446,-0.0446,-0.0442,-0.0436,-0.0442,-0.043,-0.0428,-0.0432,-0.0402,-0.0443,-0.0425,-0.0369,-0.0361,-0.0354,-0.0311,-0.0299,-0.0439,-0.0439,-0.0439,0,-0.0393,-0.0415,-0.0423,-0.0436,-0.0444,-0.044,-0.0455,-0.0449,-0.0452,-0.0444,-0.0446,-0.0437,-0.0436,-0.0419,-0.0421,-0.0429,-0.0395,-0.0421,-0.0366,-0.0358,-0.035,-0.0308,-0.0295,-0.0438,-0.0439,-0.0439,-0.0439,0,-0.0421,-0.0432,-0.0443,-0.0456,-0.0464,-0.0477,-0.0472,-0.0466,-0.0461,-0.0452,-0.0436,-0.0427,-0.0417,-0.0421,-0.042,-0.0377,-0.037,-0.0372,-0.0357,-0.0341,-0.0298,-0.0285,-0.0438,-0.0438,-0.0438,-0.0438,0,0,-0.0446,-0.046,-0.0466,-0.0469,-0.0478,-0.0488,-0.0478,-0.047,-0.0455,-0.0444,-0.0422,-0.0413,-0.04,-0.0395,-0.039,-0.0343,-0.0267,-0.0333,-0.033,-0.0276,-0.0142,-0.0155,-0.0143,-0.025,-0.0248,-0.0246,-0.0135,0,-0.0464,-0.0492,-0.0494,-0.051,-0.0523,-0.0511,-0.0503,-0.0489,-0.0466,-0.0439,-0.0411,-0.0394,-0.0392,-0.0383,-0.0333,-0.0292,-0.0233,-0.0298,-0.0178,-0.0175,-0.0176,-0.0128,-0.0239,-0.0125,-0.0122,-0.012,-0.0118,0,-0.0496,-0.0506,-0.0535,-0.0531,-0.0538,-0.0543,-0.0526,-0.0514,-0.0466,-0.0446,-0.0407,-0.0384,-0.0328,-0.0324,-0.021,-0.025,-0.0188,-0.0147,-0.0142,-0.0146,-0.0164,-0.0145,-0.0095,-0.0097,-0.0099,-0.01,-0.0102,0,-0.0518,-0.0533,-0.0556,-0.0561,-0.0561,-0.0561,-0.0554,-0.0519,-0.0498,-0.0442,-0.0415,-0.0352,-0.0313,-0.0228,-0.0154,-0.0169,-0.0022,-0.0034,0.0019,0.0018,-0.001,-0.0019,0.0077,0.0077,0.0076,0.0076,0.0076,0,-0.054,-0.0555,-0.0568,-0.0582,-0.0595,-0.0584,-0.0575,-0.0552,-0.0505,-0.0471,-0.0418,-0.0367,-0.028,-0.0196,-0.013,-0.0019,0.0004,0.0043,0.0057,-0.0011,-0.0021,-0.0001,-0.0011,0.008,0.0079,0.0079,0.0078,0,-0.0558,-0.0571,-0.0595,-0.0607,-0.0608,-0.0618,-0.0595,-0.0575,-0.0529,-0.0475,-0.0456,-0.036,-0.0246,-0.0163,-0.0025,0.0014,0.0112,0.015,0.0071,0.0075,0.0111,0.01,0.023,0.0231,0.0232,0.0232,0.0233,0,-0.0562,-0.0581,-0.0621,-0.0633,-0.064,-0.0641,-0.0633,-0.0596,-0.0562,-0.0464,-0.0434,-0.0317,-0.0247,-0.0056,0.002,0.0153,0.0165,0.0209,0.0167,0.0132,0.0133,0.012,0.0108,0.0234,0.0234,0.0234,0.0234,0,-0.0564,-0.0595,-0.0621,-0.0652,-0.0662,-0.0662,-0.0642,-0.0618,-0.0555,-0.0515,-0.0386,-0.0284,-0.0153,-0.0035,0.0065,0.0155,0.0169,0.0215,0.0215,0.0176,0.0137,0.0134,0.0122,0.0236,0.0236,0.0236,0.0236,0,-0.0562,-0.059,-0.0631,-0.0655,-0.0677,-0.0673,-0.0662,-0.0597,-0.0555,-0.0442,-0.0397,-0.0254,-0.0168,-0.003,0.0062,0.0144,0.0162,0.0171,0.0173,0.0171,0.0104,0.0043,0.0148,0,0,0,0,0,-0.0547,-0.0582,-0.0614,-0.0646,-0.0673,-0.0681,-0.0658,-0.0634,-0.0571,-0.0479,-0.0432,-0.0304,-0.0135,-0.0056,0.0029,0.0049,0.015,0.0147,0.0154,0.0248,0.0245,0.0174,0,0,0,0,0,0,-0.0537,-0.0581,-0.0611,-0.0634,-0.0653,-0.0667,-0.0659,-0.062,-0.0553,-0.0478,-0.0381,-0.0303,-0.014,-0.0184,0.0026,0.0052,0.0063,0.0235,0.0236,0.0249,0.0247,0.0245,0.0171,0,0,0,0,0]}]]